Location: Huberhof
(49.2050°N, 7.4980°E)
Time: 05:20:05
(UTC+00:00)

Cosmos 2227 Rocket - Pass Details

Date: 29 October 2020
Orbit: 839 x 845 km, 71.0° (Epoch: 25 November)

Event Time Altitude Azimuth Distance (km) Brightness Sun altitude
Rises 16:50:14 0° 333° (NNW) 3,408 5.5 -6.6°
Reaches altitude 10° 16:52:44 10° 337° (NNW) 2,471 4.8 -7.0°
Maximum altitude 16:58:21 60° 57° (ENE) 964 2.3 -7.9°
Drops below altitude 10° 17:03:56 10° 137° (SE) 2,460 4.3 -8.8°
Sets 17:06:24 0° 141° (SE) 3,392 5.1 -9.2°
